Location: Domont
(49.0278°N, 2.3264°E)
Time: 13:08:48
(UTC+00:00)

NOAA 18 - Pass Details

Date: 03 July 2022
Orbit: 839 x 860 km, 98.9° (Epoch: 13 August)

Event Time Altitude Azimuth Distance (km) Brightness Sun altitude
Exits shadow 20:32:16 - 137° (SE) 2,830 7.2 -5.1°
Reaches altitude 10° 20:33:12 10° 134° (SE) 2,482 7.0 -5.2°
Maximum altitude 20:38:22 43° 65° (ENE) 1,196 5.9 -5.8°
Drops below altitude 10° 20:43:35 10° 356° (N) 2,507 8.5 -6.4°
Sets 20:46:04 0° 350° (N) 3,450 9.5 -6.7°
